SCP
0 0 0 0 0 0 0 0 0 0 0 0 0 0 0 0 0 0 0 0 0 0 0 0 0 0 0 0 0 0 0 0 0 0 0 0 0 0 0 0 0 0 0 0
0 0 0 0 0 0 0 0 0 0 0 0 0 0 0 0 0 0 0 0 0 0 0 0 0 0 0 0 0 0 0 0 0 0 0 0 0 0 0 0 0 0 0 0
0 0 0 0 0 0 0 0 0 0 0 0 0 0 0 0 0 0 0 0 0 0 0 0 0 0 0 0 0 0 0 0 0 0 0 0 0 0 0 0 0 0 0 0
0 0 0 0 0 0 0 0 0 0 0 0 0 0 0 0 0 0 0 0 0 0 0 0 0 0 0 0 0 0 0 0 0 0 0 0 0 0 0 0 0 0 0 0
0 0 0 0 0 0 0 0 0 0 0 0 0 0 0 0 0 0 0 0 0 0 0 0 0 0 0 0 0 0 0 0 0 0 0 0 0 0 0 0 0 0 0 0
0 0 0 0 0 0 0 0 0 0 0 0 0 -0 0 0 0 0 0 0 0 0 0 0 0 0 0 0 0 0 0 0 0 0 0 0 0 0 0 0 0 0 0 0
0 0 0 0 0 0 0 0 0 0 0 0 0 0 0 0 0 0 0 0 0 0 0 0 0 0 0 0 0 0 0 0 0 0 0 0 0 0 0 0 0 0 0 0
0 0 0 0 0 0 0 0 0 0 0 0 0 0 0 0 0 0 0 0 0 0 0 0 0 0 0 0 0 0 0 0 0 0 0 0 0 0 0 0 0 0 0 0
0 0 0 0 0 0 0 0 0 0 0 0 0 0 0 0 0 0 0 0 0 0 0 0 0 0 0 0 0 0 0 0 0 0 0 0 0 0 0 0 0 0 0 0
0 0 0 0 0 0 0 0 0 0 0 0 0 0 0 0 0 0 0 0 0 0 0 0 0 0 0 0 0 0 0 0 0 0 0 0 0 0 0 0 0 0 0 0
0 0 0 0 0 0 0 0 0 0 0 0 0 0 0 0 0 0 0 0 0 0 0 0 0 0 0 0 0 0 0 0 0 0 0 0 0 0 0 0 0 0 0 0
0 0 0 0 0 0 0 0 0 0 0 0 0 0 0 0 0 0 0 0 0 0 0 0 0 0 0 0 0 0 0 0 0 0 0 0 0 0 0 0 0 0 0 0
0 0 0 0 0 0 0 0 0 0 0 0 0 0 0 0 0 0 0 0 0 0 0 0 0 0 0 0 0 0 0 0 0 0 0 0 0 0 0 0 0 0 0 0
0 0 0 0 0 0 0 0 0 0 0 0 0 0 0 0 0 0 0 0 0 0 0 0 0 0 0 0 0 0 0 0 0 0 0 0 0 0 0 0 0 0 0 0
0 0 0 0 0 0 0 0 0 0 0 0 0 0 0 0 0 0 0 0 0 0 0 0 0 0 0 0 0 0 0 0 0 0 0 0 0 0 0 0 0 0 0 0
0 0 0 0 0 0 0 0 0 0 0 0 0 0 0 0 0 0 0 0 0 0 0 0 0 0 0 0 0 0 0 0 0 0 0 0 0 0 0 0 0 0 0 0
0 0 0 0 0 0 0 0 0 0 0 0 0 0 0 -0 0 0 0 0 0 0 0 0 0 0 0 0 0 0 0 0 0 0 0 0 0 0 0 0 0 0 0 0
0 0 0 0 0 0 0 0 0 0 0 0 0 0 -0 -0 0 0 0 0 0 0 0 0 0 0 0 0 0 0 0 0 0 0 0 0 0 0 0 0 0 0 0 0
0 0 0 0 0 0 0 0 0 0 0 0 0 0 0 0 0 0 0 0 0 0 0 0 0 0 0 0 0 0 0 0 0 0 0 0 0 0 0 0 0 0 0 0
0 0 0 0 0 0 0 0 0 0 0 0 0 0 0 0 0 0 0 0 0 0 0 0 0 0 0 0 0 0 0 0 0 0 0 0 0 0 0 0 0 0 0 0
0 0 0 0 0 0 0 0 0 0 0 0 0 0 0 0 0 0 0 0 0 0 0 0 0 0 0 0 0 0 0 0 0 0 0 0 0 0 0 0 0 0 0 0
0 0 0 0 0 0 0 0 0 0 0 0 0 0 0 0 0 0 0 0 0 0 0 0 0 0 0 0 0 0 0 0 0 0 0 0 0 0 0 0 0 0 0 0
0 0 0 0 0 0 0 0 0 0 0 0 0 0 0 0 0 0 0 0 0 0 0 0 0 0 0 0 0 0 0 0 0 0 0 0 0 0 0 0 0 0 0 0
0 0 0 0 0 0 0 0 0 0 0 0 0 0 0 0 0 0 0 0 0 0 0 0 0 0 0 0 0 0 0 0 0 0 0 0 0 0 0 0 0 0 0 0
0 0 0 0 0 0 0 0 0 0 0 0 0 0 0 0 0 0 0 0 0 0 0 0 0 0 0 0 0 0 0 0 0 0 0 0 0 0 0 0 0 0 0 0
0 0 0 0 0 0 0 0 0 0 0 0 0 0 0 0 0 0 0 0 0 0 0 0 0 0 0 0 0 0 0 0 0 0 0 0 0 0 0 0 0 0 0 0
0 0 0 0 0 0 0 0 0 0 0 0 0 0 0 0 0 0 0 0 0 0 0 0 0 0 0 0 0 0 0 0 0 0 0 0 0 0 0 0 0 0 0 0
Wind_Speed
6 5 5 7 8 9 12 12 12 9 9 5 4 3 2 2 1 1 1 1 1 2 1 2 2 3 4 4 4 4 5 5 5 4 4 4 4 4 4 4 4 4 4 4
6 5 6 8 9 9 10 11 11 10 8 3 3 2 2 2 1 1 1 1 1 2 1 2 2 2 3 3 4 4 5 4 4 4 4 4 4 3 3 3 4 4 4 4
6 4 6 9 7 8 7 6 7 9 6 3 2 2 3 2 2 2 2 1 1 1 2 2 2 2 3 3 3 4 4 4 4 4 4 4 4 3 4 4 3 4 4 4
5 5 9 1 2 2 4 4 5 5 4 3 3 3 2 2 2 2 2 2 2 1 1 1 1 2 2 3 3 4 4 4 3 3 3 3 3 4 4 3 3 3 4 4
5 7 6 2 1 2 5 4 3 5 4 3 2 3 1 2 2 2 2 2 2 2 1 1 1 2 2 3 3 4 4 4 4 4 4 3 4 4 4 3 3 3 3 4
6 7 6 1 1 1 5 5 1 3 3 2 3 4 0 2 2 2 2 1 1 1 1 1 1 2 3 3 3 4 4 4 4 4 4 4 4 4 3 3 3 3 3 3
8 8 4 1 1 3 5 1 2 2 3 3 3 3 3 2 2 1 1 1 1 0 0 1 1 1 2 2 2 2 2 3 3 3 4 4 3 3 3 3 3 3 3 3
6 7 4 3 3 3 2 3 1 1 2 2 2 2 2 2 1 1 1 1 1 1 1 1 0 1 1 1 1 1 2 2 3 2 2 3 3 3 3 3 3 3 3 3
4 2 3 2 1 1 2 2 2 2 2 2 2 2 1 1 1 1 1 1 1 1 1 2 2 1 1 1 1 1 2 3 2 3 2 3 3 3 3 3 3 3 3 3
4 3 2 2 2 2 2 2 2 2 2 2 2 1 1 1 1 1 1 2 1 1 1 1 2 2 2 2 1 2 2 2 2 2 2 3 2 3 3 3 3 3 3 3
5 3 2 3 2 2 2 2 1 1 1 1 1 1 1 0 0 0 1 1 1 1 1 1 2 2 3 3 2 2 2 2 2 2 2 2 2 2 4 3 3 4 4 4
4 3 3 3 1 2 2 2 2 1 1 1 1 1 0 0 0 1 1 1 1 1 2 2 2 3 3 3 3 3 2 2 2 2 2 2 3 2 2 3 3 4 4 5
4 2 2 2 2 1 2 2 2 1 1 1 1 1 0 0 1 1 1 1 1 2 3 3 3 3 3 4 4 4 3 3 2 2 2 3 3 3 3 2 4 5 5 5
3 2 3 2 2 1 1 1 0 0 1 1 1 0 0 1 1 1 1 2 2 3 3 3 3 3 4 4 4 4 4 3 3 3 3 3 3 3 3 3 3 3 4 5
3 4 3 2 2 1 1 1 1 1 1 1 0 0 0 0 0 1 2 2 2 2 3 3 4 4 4 4 4 4 4 3 3 3 3 3 3 3 3 4 4 3 3 3
3 2 2 2 2 2 2 2 2 1 0 0 0 0 1 1 1 1 2 2 2 3 3 4 4 5 5 5 4 4 3 4 5 4 3 3 3 4 4 4 4 4 4 3
4 3 3 3 3 3 3 3 2 1 1 1 1 1 1 0 1 1 2 2 3 3 3 4 4 5 5 5 4 4 3 3 5 4 4 3 4 4 4 4 4 4 4 3
5 4 4 4 4 3 3 3 2 2 1 0 0 0 0 1 1 2 2 3 3 3 4 4 5 5 5 5 4 4 3 4 4 4 4 3 4 4 4 4 5 5 4 3
3 3 3 3 3 3 3 2 2 2 1 1 1 0 1 1 2 2 3 3 3 4 4 5 7 6 5 5 6 4 4 4 4 4 4 4 4 4 4 4 4 4 4 3
2 2 2 1 1 2 2 2 2 2 2 1 1 1 1 1 2 2 3 3 3 4 5 5 6 5 5 5 6 4 4 4 4 4 4 4 4 4 4 4 5 5 4 4
2 2 1 1 1 1 2 2 2 2 2 2 2 2 2 2 2 3 3 3 3 4 4 5 5 4 5 5 6 5 4 4 4 4 4 4 4 4 4 4 4 4 4 4
2 2 2 1 1 1 1 2 2 2 2 2 2 2 2 2 3 3 4 3 3 4 4 4 4 5 7 7 5 5 5 5 5 4 4 4 4 4 5 5 5 4 4 4
2 2 2 2 2 1 1 2 2 3 3 3 3 3 3 3 3 3 4 3 3 5 5 4 6 7 8 6 5 5 5 5 5 4 4 4 4 4 5 5 4 4 4 4
3 3 2 2 2 2 2 2 2 2 3 3 3 3 3 3 3 3 3 4 5 6 5 5 7 7 7 5 5 5 5 5 5 4 4 4 4 4 4 4 4 4 4 5
3 3 3 3 3 3 3 2 2 2 2 2 3 3 3 3 3 3 3 4 5 5 5 5 7 8 6 5 5 5 5 5 5 4 4 5 5 4 5 5 5 5 4 5
4 3 3 4 3 2 2 2 3 2 2 2 3 3 3 2 3 3 3 4 5 5 5 4 5 5 5 5 5 5 5 5 5 5 5 5 5 5 5 5 6 5 4 4
3 3 3 3 3 3 3 3 3 3 3 3 3 3 3 3 3 3 4 4 4 4 4 4 4 5 5 4 5 5 5 5 5 5 5 4 4 4 5 5 5 4 4 4
Wind_Direction
253 256 237 241 235 225 233 244 254 259 261 274 299 293 283 272 253 206 199 198 202 204 204 216 218 223 217 216 209 203 205 207 209 213 209 206 206 212 214 216 221 218 214 210
233 230 234 244 243 237 239 247 250 256 259 293 327 326 316 285 231 235 241 236 222 215 216 226 225 222 226 224 213 208 210 212 209 212 209 205 200 205 208 209 218 219 219 218
241 220 235 240 238 233 227 240 247 250 261 289 291 308 298 289 245 247 249 247 236 228 218 231 233 221 219 230 219 208 209 208 205 207 203 205 197 196 202 204 207 218 217 217
250 233 239 166 76 243 225 242 256 268 282 285 286 299 307 302 277 266 262 247 235 226 229 246 250 234 216 213 209 203 206 206 201 208 209 207 201 199 208 208 203 219 221 214
233 243 249 197 202 228 241 246 256 259 269 288 289 238 178 19 333 311 282 251 238 229 227 232 239 231 208 202 199 198 204 206 203 205 205 207 209 208 207 208 211 219 228 220
228 240 247 155 96 261 247 240 229 258 265 277 265 251 316 8 326 325 329 302 272 252 235 240 240 217 197 196 195 199 205 209 206 203 203 205 208 205 202 209 213 215 228 227
232 244 253 43 150 210 232 0 48 278 267 250 262 319 347 334 327 335 352 26 37 29 303 288 254 214 197 197 212 219 212 209 206 203 206 206 203 207 205 207 209 214 226 230
228 236 236 96 165 216 336 25 342 307 295 270 292 333 343 350 17 27 42 53 62 65 32 20 347 227 210 228 255 246 220 210 211 209 207 208 202 211 212 207 209 214 228 237
240 260 49 144 199 315 318 286 314 311 307 283 290 302 318 351 27 38 48 49 43 58 47 31 18 332 304 308 272 227 216 211 207 208 206 209 205 207 213 213 217 220 228 239
230 233 222 227 262 277 277 283 304 308 295 267 284 295 296 345 25 44 48 37 25 43 42 16 357 343 349 349 289 234 223 217 211 212 213 212 210 214 220 219 222 227 232 242
242 250 236 229 251 287 291 287 294 319 303 284 297 307 309 292 299 27 28 32 10 349 341 341 335 331 340 341 307 267 248 239 232 228 234 238 228 235 240 233 244 245 243 246
257 257 248 256 268 297 277 273 280 283 293 308 307 315 323 339 9 11 11 16 342 330 322 321 319 322 329 321 307 286 267 263 252 239 237 242 241 232 243 253 248 252 268 271
280 295 278 279 268 267 271 280 280 275 270 275 307 305 252 65 59 42 9 346 318 311 307 309 311 314 321 310 300 293 281 275 261 249 245 247 247 244 245 232 227 232 236 247
241 247 246 246 244 258 263 267 255 311 356 335 338 360 78 68 52 13 350 327 314 312 312 315 312 313 316 309 298 294 290 281 275 256 253 255 255 252 251 253 251 246 227 224
240 247 247 238 206 201 184 178 162 123 49 31 21 79 87 29 343 328 330 323 318 320 322 322 317 319 321 311 301 292 288 280 275 268 260 260 258 254 252 252 258 263 261 227
227 221 219 213 202 194 192 200 204 209 250 314 327 341 327 327 327 325 337 334 320 320 323 321 319 324 324 313 306 296 287 285 287 274 259 256 256 255 253 253 256 260 261 265
203 209 212 219 220 216 214 225 232 231 246 273 314 344 350 4 360 345 341 329 319 321 323 324 325 328 321 311 304 294 288 277 272 270 260 259 259 260 261 260 261 262 264 268
219 220 221 219 220 220 221 229 228 225 234 258 47 147 251 291 317 329 331 327 325 329 333 334 333 326 322 318 309 294 283 278 270 269 267 264 267 266 265 264 264 265 271 256
225 227 229 228 226 221 220 224 219 209 198 172 175 222 303 315 324 325 325 319 316 322 334 340 334 323 323 326 320 297 288 281 275 271 269 265 263 265 265 265 267 268 270 267
212 219 221 225 219 214 212 208 201 198 196 193 203 225 293 315 320 313 309 308 315 322 322 326 318 318 320 319 316 301 295 286 280 279 277 272 269 267 266 265 265 266 267 265
192 193 194 200 201 212 215 207 200 202 205 212 224 247 276 294 296 293 290 292 309 321 315 310 307 314 316 319 308 301 299 293 286 283 281 274 268 268 269 269 270 269 269 267
194 193 201 211 212 225 226 219 213 213 220 229 240 249 258 266 274 280 281 289 299 313 305 299 306 323 324 316 302 300 299 297 291 285 282 280 275 273 272 272 270 271 272 271
199 201 208 213 215 218 217 224 225 226 230 236 242 250 259 268 268 272 282 293 297 308 304 302 319 322 318 309 302 299 297 295 293 289 285 284 283 281 279 277 275 273 271 271
205 203 207 209 207 211 221 234 240 240 245 254 257 262 267 271 275 278 285 294 304 304 297 306 314 314 310 302 300 296 293 292 290 289 288 285 285 284 282 280 276 274 271 269
214 214 213 214 218 226 234 241 249 252 259 263 265 267 268 271 278 286 285 287 297 298 294 300 307 309 303 298 297 296 294 293 292 292 290 286 282 280 279 276 273 272 270 268
223 225 226 229 235 236 233 233 241 250 258 267 272 274 275 275 274 276 277 280 286 293 293 294 296 298 297 298 298 297 295 294 291 288 286 288 286 282 279 278 277 274 272 270
226 227 227 230 232 230 232 235 240 247 252 259 273 277 277 277 277 279 282 284 286 287 290 293 294 296 297 298 298 296 294 294 294 294 292 289 287 286 284 283 281 279 276 273